Regional Weather Roundup
Issued by NWS Memphis, TN

Home | Current Version | Previous Version | Text Only | Print | Product List | Glossary On
Versions: 1 2 3 4 5 6 7 8 9 10 11 12 13 14 15 16 17 18 19 20 21 22 23 24 25 26 27 28 29 30 31 32 33 34 35 36 37 38 39 40 41 42 43 44 45 46 47 48 49 50
000
ASUS44 KMEG 042210
RWRMEG
MEMPHIS CWA HOURLY WEATHER ROUNDUP
NATIONAL WEATHER SERVICE MEMPHIS TN
500 PM CDT WED MAY 04 2016

...WEST TENNESSEE...

CITY           SKY/WX    TMP DP  RH WIND       PRES   REMARKS
MEMPHIS INTL   MOSUNNY   76  44  32 NW20G26   29.77R
NWS MEMPHIS      N/A     77 N/A N/A MISG        N/A
JACKSON        MOSUNNY   71  49  45 N15G22    29.76R
LEXINGTON      MOSUNNY   68  48  49 NW8       29.74R
DYERSBURG      SUNNY     72  45  37 N13G25    29.77R
UNION CITY     SUNNY     72  41  33 N21       29.76R


...EASTERN ARKANSAS...

CITY           SKY/WX    TMP DP  RH WIND       PRES   REMARKS
JONESBORO      LGT RAIN  76  41  28 NW13G22   29.78S
WEST MEMPHIS   MOSUNNY   75  46  35 N12G25    29.77S
BATESVILLE     MOSUNNY   77  39  25 W12       29.82S
NEWPORT        PTSUNNY   77  43  29 N14       29.81S
WALNUT RIDGE   SUNNY     75  41  29 NW18      29.80R
BLYTHEVILLE    MOSUNNY   75  49  39 N16G22    29.78R
NW BLYTHEVILLE PTSUNNY   75  46  35 N12G24    29.77S
SEARCY         SUNNY     79  45  29 NW13      29.82S
STUTTGART      CLOUDY    75  54  46 NW14      29.80S
PINE BLUFF     MOSUNNY   80  47  31 NW16G25   29.81S
MONTICELLO     PTSUNNY   80  53  39 W15       29.82S


...NORTH MISSISSIPPI...

CITY           SKY/WX    TMP DP  RH WIND       PRES   REMARKS
TUPELO         LGT RAIN  71  49  45 W13G21    29.75S
OXFORD         MOSUNNY   73  50  43 NW12G24   29.78S
BATESVILLE     LGT RAIN  72  52  49 W3        29.78R
OLIVE BRANCH   MOSUNNY   75  45  33 MISG      29.76R
TUNICA         MOSUNNY   75  52  43 NW16G22   29.78S
CORINTH        MOSUNNY   66  55  68 NW6       29.74F
GREENWOOD      PTSUNNY   76  48  37 W10G18    29.80F
COLUMBUS       MOSUNNY   76  56  50 W14G22    29.74F
STARKVILLE     MOCLDY    77  48  36 W12       29.77S
GOLDEN TRIANGL PTSUNNY   75  50  41 NW12      29.76F


...SOUTHEAST MISSOURI...

CITY           SKY/WX    TMP DP  RH WIND       PRES   REMARKS
KENNETT        FAIR      75  43  31 N16G22    29.77R HAZE
WEST PLAINS    MOSUNNY   71  36  27 NW10      29.87R
POPLAR BLUFF   SUNNY     73  40  30 NW16G24   29.78S
CAPE GIRARDEAU MOSUNNY   69  41  36 N15G28    29.79R


...NORTHWEST ALABAMA...

CITY           SKY/WX    TMP DP  RH WIND       PRES   REMARKS
MUSCLE SHOALS  LGT RAIN  62  54  74 N13G29    29.75R


...MIDDLE TENNESSEE...

CITY           SKY/WX    TMP DP  RH WIND       PRES   REMARKS
NASHVILLE      PTSUNNY   66  45  45 NW24G36   29.73R THUNDER
CLARKSVILLE    MOSUNNY   64  51  62 NW10      29.73S
COLUMBIA       SUNNY     66  61  82 N9        29.71F


...WESTERN KENTUCKY...

CITY           SKY/WX    TMP DP  RH WIND       PRES   REMARKS
PADUCAH        MOSUNNY   67  38  34 N17G25    29.77R
FORT CAMPBELL  MOSUNNY   65  51  62 N13       29.73S


...CENTRAL ARKANSAS...

CITY           SKY/WX    TMP DP  RH WIND       PRES   REMARKS
LITTLE ROCK    MOSUNNY   81  44  27 NW22      29.81S


SKY/WX REPORTED AS FAIR MEANS FEW OR NO CLOUDS BELOW
12 THOUSAND FEET.




USA.gov is the U.S. government's official web portal to all federal, state and local government web resources and services.